Hourly Data Report for September 30, 2017

All times are specified in Local Standard Time (LST). Add 1 hour to adjust for Daylight Saving Time where and when it is observed.

FREDERICTON
NEW BRUNSWICK

45°52'08.000" N
66°32'14.000" W
20.70 m
8101505
71700
YFC

Download Data

Hourly Data (September 2017)
Hourly Data Report for September 30, 2017
Temp Definition
°C
Dew Point Temp Definition
°C
Rel Hum Definition
%
Wind Dir Definition
10's deg

Wind Spd Definition
km/h
Visibility Definition
km
Stn Press Definition
kPa
Hmdx Definition


Wind Chill Definition


Weather Definition


TIME
00:00 Legend Double Dagger 4.9 2.1 82 27 5 16.1 101.71     LegendNANA
01:00 Legend Double Dagger 4.7 1.4 79 LegendMM 4 16.1 101.76     LegendNANA
02:00 Legend Double Dagger 3.8 1.2 83 32 9 16.1 101.81     LegendNANA
03:00 Legend Double Dagger 3.2 0.8 84 32 9 16.1 101.82     LegendNANA
04:00 Legend Double Dagger 2.6 0.8 88 31 8 16.1 101.88     LegendNANA
05:00 Legend Double Dagger 2.6 0.8 88 35 13 16.1 101.95     LegendNANA
06:00 Legend Double Dagger 2.8 1.0 88 32 8 16.1 102.05     LegendNANA
07:00 Legend Double Dagger 3.4 0.8 83 33 11 16.1 102.11     LegendNANA
08:00 Legend Double Dagger 4.2 1.1 80 31 5 16.1 102.19     LegendNANA
09:00 Legend Double Dagger 6.4 0.8 67 4 8 16.1 102.24     LegendNANA
10:00 Legend Double Dagger 8.5 1.7 62   0 16.1 102.25     LegendNANA
11:00 Legend Double Dagger 10.7 -0.1 47 3 5 16.1 102.25     LegendNANA
12:00 Legend Double Dagger 11.2 -0.9 43 34 13 16.1 102.24     LegendNANA
13:00 Legend Double Dagger 11.7 0.1 45 5 8 16.1 102.21     LegendNANA
14:00 Legend Double Dagger 12.7 0.0 41 LegendMM 8 16.1 102.18     LegendNANA
15:00 Legend Double Dagger 12.9 0.1 41   0 16.1 102.13     LegendNANA
16:00 Legend Double Dagger 13.4 -0.5 38 31 5 16.1 102.11     LegendNANA
17:00 Legend Double Dagger 12.7 0.3 43 24 5 16.1 102.09     LegendNANA
18:00 Legend Double Dagger 9.4 2.7 63 22 8 16.1 102.12     LegendNANA
19:00 Legend Double Dagger 8.4 1.6 62 27 8 16.1 102.18     LegendNANA
20:00 Legend Double Dagger 6.5 1.4 70 27 9 16.1 102.23     LegendNANA
21:00 Legend Double Dagger 5.9 1.1 71 27 8 16.1 102.24     LegendNANA
22:00 Legend Double Dagger 2.8 0.9 87 19 9 16.1 102.24     LegendNANA
23:00 Legend Double Dagger 1.9 0.7 92 21 11 16.1 102.25     LegendNANA

Notes on Data Quality.

Legend

  • E = Estimated
  • M = Missing
  • NA = Not Available
  • ‡ = Partner data that is not subject to review by the National Climate Archives
Date modified: